�������l�o���
Date,Time,MP-1(��Sv/h),MP-2(��Sv/h),MP-3(��Sv/h),MP-4(��Sv/h),MP-5(��Sv/h),MP-6(��Sv/h),MP-7(��Sv/h),MP-8(��Sv/h),����,����(m/s),���J
2021/11/10,00:00,0.560,0.824,0.537,1.012,0.681,0.355,0.601,0.566,���쐼,4.9,�L
2021/11/10,00:10,0.561,0.822,0.537,1.011,0.683,0.354,0.603,0.566,���k��,3.3,�L
2021/11/10,00:20,0.562,0.826,0.540,1.012,0.684,0.353,0.601,0.566,���k��,4.8,�L
2021/11/10,00:30,0.563,0.828,0.540,1.014,0.687,0.355,0.602,0.565,���k��,3.8,�L
2021/11/10,00:40,0.566,0.830,0.539,1.015,0.687,0.354,0.602,0.568,���k��,3.9,�L
2021/11/10,00:50,0.565,0.829,0.537,1.016,0.688,0.355,0.604,0.567,���k��,3.7,��
2021/11/10,01:00,0.565,0.834,0.537,1.017,0.688,0.353,0.602,0.566,���k��,3.9,��
2021/11/10,01:10,0.564,0.835,0.540,1.018,0.691,0.353,0.603,0.568,���k��,3.8,��
2021/11/10,01:20,0.564,0.834,0.536,1.019,0.690,0.352,0.603,0.568,���k��,3.2,��
2021/11/10,01:30,0.564,0.833,0.537,1.019,0.691,0.352,0.602,0.568,���k��,3.8,��
2021/11/10,01:40,0.562,0.833,0.536,1.019,0.691,0.351,0.602,0.570,���k��,3.9,��
2021/11/10,01:50,0.563,0.833,0.535,1.018,0.690,0.351,0.603,0.569,�k��,3.6,��
2021/11/10,02:00,0.564,0.836,0.537,1.019,0.692,0.350,0.603,0.569,���k��,3.7,��
2021/11/10,02:10,0.563,0.836,0.535,1.019,0.691,0.350,0.604,0.568,���k��,4.1,��
2021/11/10,02:20,0.563,0.834,0.536,1.021,0.690,0.350,0.604,0.569,���k��,3.9,�L
2021/11/10,02:30,0.564,0.836,0.537,1.021,0.695,0.350,0.603,0.567,���k��,5.8,��
2021/11/10,02:40,0.563,0.835,0.536,1.022,0.692,0.351,0.603,0.570,���k��,5.6,�L
2021/11/10,02:50,0.565,0.835,0.537,1.021,0.694,0.351,0.604,0.569,���k��,5.3,�L
2021/11/10,03:00,0.563,0.835,0.537,1.025,0.693,0.350,0.603,0.569,���k��,7.2,��
2021/11/10,03:10,0.564,0.836,0.537,1.024,0.696,0.351,0.605,0.568,��,6.4,��
2021/11/10,03:20,0.563,0.838,0.536,1.026,0.696,0.352,0.604,0.571,��,6.1,�L
2021/11/10,03:30,0.563,0.835,0.539,1.026,0.695,0.351,0.605,0.569,���쐼,4.1,�L
2021/11/10,03:40,0.564,0.836,0.538,1.026,0.697,0.352,0.603,0.570,��,4.4,�L
2021/11/10,03:50,0.564,0.837,0.538,1.026,0.696,0.351,0.603,0.570,���쐼,4.7,�L
2021/11/10,04:00,0.564,0.837,0.539,1.025,0.696,0.354,0.603,0.569,��,4.1,�L
2021/11/10,04:10,0.566,0.836,0.539,1.028,0.696,0.355,0.605,0.570,���k��,3.3,�L
2021/11/10,04:20,0.565,0.838,0.539,1.027,0.696,0.355,0.603,0.568,�k�k��,1.7,�L
2021/11/10,04:30,0.567,0.836,0.541,1.030,0.698,0.356,0.605,0.569,�k,3.4,�L
2021/11/10,04:40,0.568,0.839,0.540,1.029,0.698,0.356,0.603,0.569,�k�k��,5.0,�L
2021/11/10,04:50,0.566,0.839,0.539,1.030,0.698,0.357,0.603,0.568,�k��,6.8,�L
2021/11/10,05:00,0.566,0.838,0.540,1.029,0.699,0.356,0.604,0.569,�k��,7.5,�L
2021/11/10,05:10,0.566,0.837,0.541,1.025,0.700,0.354,0.604,0.569,�k��,5.5,�L
2021/11/10,05:20,0.566,0.837,0.539,1.028,0.698,0.354,0.604,0.569,���k��,5.9,�L
2021/11/10,05:30,0.566,0.838,0.539,1.027,0.698,0.353,0.604,0.569,���k��,5.6,��
2021/11/10,05:40,0.566,0.837,0.536,1.026,0.699,0.353,0.603,0.569,���k��,5.4,��
2021/11/10,05:50,0.564,0.838,0.538,1.027,0.699,0.351,0.605,0.569,���k��,5.2,��
2021/11/10,06:00,0.564,0.836,0.537,1.029,0.698,0.353,0.605,0.569,���k��,4.9,��
2021/11/10,06:10,0.565,0.837,0.539,1.026,0.697,0.352,0.604,0.570,���k��,6.0,��
2021/11/10,06:20,0.563,0.837,0.538,1.029,0.699,0.350,0.605,0.570,���k��,6.8,��
2021/11/10,06:30,0.564,0.836,0.538,1.028,0.700,0.351,0.604,0.569,�k��,7.2,��
2021/11/10,06:40,0.563,0.837,0.539,1.026,0.698,0.352,0.606,0.569,���k��,6.8,��
2021/11/10,06:50,0.564,0.834,0.537,1.027,0.700,0.352,0.606,0.569,���k��,6.4,��
2021/11/10,07:00,0.563,0.840,0.538,1.030,0.699,0.351,0.604,0.569,���k��,8.5,��
2021/11/10,07:10,0.564,0.836,0.538,1.029,0.700,0.351,0.605,0.569,���k��,6.6,��
2021/11/10,07:20,0.564,0.836,0.538,1.028,0.700,0.352,0.604,0.569,�k��,7.7,��
2021/11/10,07:30,0.564,0.838,0.539,1.029,0.700,0.350,0.606,0.569,���k��,8.2,��
2021/11/10,07:40,0.565,0.839,0.540,1.031,0.700,0.350,0.605,0.570,���k��,8.0,��
2021/11/10,07:50,0.565,0.837,0.538,1.031,0.700,0.350,0.606,0.571,���k��,7.5,��
2021/11/10,08:00,0.563,0.840,0.538,1.032,0.702,0.350,0.608,0.570,���k��,6.2,��
2021/11/10,08:10,0.563,0.840,0.540,1.030,0.702,0.350,0.605,0.569,���k��,4.8,��
2021/11/10,08:20,0.565,0.841,0.539,1.030,0.703,0.351,0.606,0.569,�k��,2.6,��
2021/11/10,08:30,0.565,0.840,0.539,1.029,0.702,0.351,0.606,0.570,�k��,2.0,��
2021/11/10,08:40,0.566,0.839,0.540,1.030,0.704,0.351,0.606,0.569,�k��,3.0,��
2021/11/10,08:50,0.567,0.840,0.537,1.032,0.703,0.351,0.607,0.572,�k��,3.3,��
2021/11/10,09:00,0.565,0.838,0.539,1.033,0.704,0.351,0.605,0.570,�k��,5.5,��
2021/11/10,09:10,0.567,0.840,0.540,1.034,0.705,0.351,0.606,0.571,�k��,5.3,��
2021/11/10,09:20,0.566,0.839,0.539,1.031,0.706,0.351,0.606,0.572,�k��,4.0,��
2021/11/10,09:30,0.566,0.840,0.542,1.033,0.705,0.351,0.607,0.570,�k��,3.3,��
2021/11/10,09:40,0.569,0.839,0.540,1.033,0.707,0.353,0.605,0.570,�k��,4.6,��
2021/11/10,09:50,0.568,0.842,0.541,1.033,0.706,0.350,0.606,0.570,�k�k��,3.5,��
2021/11/10,10:00,0.568,0.843,0.540,1.033,0.706,0.350,0.603,0.570,�k�k��,3.9,��
2021/11/10,10:10,0.568,0.839,0.542,1.034,0.707,0.352,0.607,0.570,�k��,3.2,��
2021/11/10,10:20,0.568,0.839,0.541,1.034,0.707,0.351,0.606,0.570,���k��,3.2,��
2021/11/10,10:30,0.568,0.841,0.543,1.034,0.708,0.353,0.609,0.570,���k��,2.0,��
2021/11/10,10:40,0.568,0.839,0.543,1.035,0.708,0.353,0.606,0.571,�쐼,1.4,��
2021/11/10,10:50,0.568,0.841,0.542,1.036,0.709,0.351,0.607,0.570,��쐼,1.4,��
2021/11/10,11:00,0.565,0.843,0.544,1.036,0.708,0.352,0.608,0.571,��쓌,2.8,��
2021/11/10,11:10,0.568,0.842,0.542,1.036,0.709,0.350,0.608,0.570,��쓌,2.6,��
2021/11/10,11:20,0.567,0.840,0.542,1.036,0.708,0.351,0.607,0.572,��,1.4,��
2021/11/10,11:30,0.567,0.843,0.543,1.035,0.708,0.350,0.607,0.570,�쓌,2.8,��
2021/11/10,11:40,0.570,0.845,0.543,1.036,0.710,0.350,0.608,0.571,�쐼,1.7,��
2021/11/10,11:50,0.568,0.844,0.542,1.036,0.708,0.350,0.609,0.571,��,2.3,��
2021/11/10,12:00,0.568,0.842,0.543,1.038,0.712,0.350,0.609,0.570,��,2.0,��
2021/11/10,12:10,0.569,0.844,0.542,1.038,0.711,0.352,0.607,0.571,��쓌,2.3,��
2021/11/10,12:20,0.567,0.847,0.542,1.036,0.711,0.352,0.607,0.571,��,2.5,��
2021/11/10,12:30,0.567,0.844,0.543,1.036,0.711,0.350,0.609,0.571,��쓌,4.2,��
2021/11/10,12:40,0.569,0.847,0.544,1.038,0.712,0.351,0.607,0.570,��쓌,5.9,�L
2021/11/10,12:50,0.569,0.846,0.544,1.038,0.713,0.352,0.609,0.571,��쓌,6.2,�L
2021/11/10,13:00,0.570,0.846,0.544,1.040,0.714,0.352,0.611,0.571,��,5.9,�L
2021/11/10,13:10,0.572,0.849,0.545,1.039,0.714,0.352,0.608,0.571,��,5.5,��
2021/11/10,13:20,0.573,0.847,0.544,1.038,0.714,0.353,0.608,0.570,��,5.0,��
2021/11/10,13:30,0.571,0.849,0.546,1.039,0.713,0.354,0.607,0.571,��쓌,5.5,��
2021/11/10,13:40,0.570,0.848,0.545,1.037,0.714,0.353,0.607,0.571,��쓌,5.2,��
2021/11/10,13:50,0.572,0.846,0.545,1.039,0.713,0.353,0.608,0.572,��,6.1,��
2021/11/10,14:00,0.569,0.847,0.544,1.039,0.714,0.353,0.609,0.570,��쓌,5.4,��
2021/11/10,14:10,0.569,0.847,0.545,1.040,0.713,0.352,0.608,0.572,��쐼,3.9,�L
2021/11/10,14:20,0.571,0.847,0.545,1.037,0.713,0.352,0.604,0.570,�쐼,2.6,�L
2021/11/10,14:30,0.571,0.848,0.547,1.043,0.715,0.354,0.609,0.570,���쐼,2.8,�L
2021/11/10,14:40,0.572,0.852,0.548,1.042,0.716,0.357,0.607,0.572,��,4.9,�L
2021/11/10,14:50,0.575,0.852,0.551,1.041,0.718,0.355,0.607,0.569,��,4.7,�L
2021/11/10,15:00,0.575,0.854,0.549,1.043,0.717,0.357,0.608,0.571,��,8.4,�L
2021/11/10,15:10,0.575,0.854,0.550,1.041,0.718,0.356,0.608,0.569,��,10.0,�L
2021/11/10,15:20,0.575,0.854,0.549,1.043,0.719,0.356,0.609,0.572,��,9.2,�L
2021/11/10,15:30,0.576,0.855,0.548,1.041,0.720,0.355,0.608,0.572,��,9.0,�L
2021/11/10,15:40,0.576,0.853,0.547,1.042,0.718,0.356,0.609,0.572,���k��,8.9,��
2021/11/10,15:50,0.576,0.853,0.548,1.041,0.719,0.355,0.608,0.572,���k��,7.6,��
2021/11/10,16:00,0.574,0.853,0.547,1.042,0.717,0.354,0.608,0.573,���k��,7.7,��
2021/11/10,16:10,0.574,0.853,0.547,1.042,0.718,0.354,0.608,0.574,��,7.3,��
2021/11/10,16:20,0.573,0.853,0.546,1.042,0.718,0.353,0.609,0.575,��,7.6,��
2021/11/10,16:30,0.573,0.852,0.546,1.041,0.717,0.354,0.611,0.573,��,7.5,��
2021/11/10,16:40,0.573,0.853,0.545,1.039,0.718,0.354,0.610,0.572,��,7.1,��
2021/11/10,16:50,0.573,0.853,0.544,1.042,0.718,0.353,0.609,0.573,��,7.2,��
2021/11/10,17:00,0.572,0.851,0.545,1.041,0.718,0.353,0.609,0.574,��,6.4,��
2021/11/10,17:10,0.572,0.853,0.544,1.039,0.720,0.353,0.611,0.572,��,6.6,��
2021/11/10,17:20,0.571,0.852,0.543,1.041,0.716,0.353,0.609,0.575,��,5.6,��
2021/11/10,17:30,0.570,0.850,0.544,1.041,0.719,0.353,0.609,0.572,��,5.6,��
2021/11/10,17:40,0.572,0.851,0.544,1.044,0.716,0.351,0.610,0.574,��,6.1,��
2021/11/10,17:50,0.572,0.852,0.545,1.041,0.718,0.353,0.610,0.574,��,7.0,��
2021/11/10,18:00,0.569,0.850,0.544,1.041,0.718,0.352,0.609,0.574,��,6.7,��
2021/11/10,18:10,0.570,0.854,0.544,1.043,0.719,0.353,0.610,0.573,��,6.1,��
2021/11/10,18:20,0.571,0.851,0.543,1.040,0.715,0.355,0.610,0.574,��,5.9,��
2021/11/10,18:30,0.571,0.850,0.545,1.043,0.717,0.351,0.610,0.574,��,4.3,��
2021/11/10,18:40,0.570,0.850,0.544,1.039,0.719,0.352,0.612,0.573,��,4.1,��
2021/11/10,18:50,0.572,0.852,0.545,1.041,0.718,0.352,0.611,0.575,��,4.8,��
2021/11/10,19:00,0.571,0.851,0.543,1.041,0.719,0.353,0.612,0.573,��,4.5,��
2021/11/10,19:10,0.572,0.851,0.544,1.043,0.718,0.354,0.612,0.572,��,3.0,��
2021/11/10,19:20,0.571,0.852,0.545,1.039,0.718,0.353,0.611,0.572,���k��,2.3,��
2021/11/10,19:30,0.569,0.852,0.543,1.041,0.716,0.353,0.611,0.572,��,3.1,��
2021/11/10,19:40,0.570,0.851,0.546,1.041,0.718,0.353,0.611,0.573,��,5.3,��
2021/11/10,19:50,0.569,0.851,0.543,1.040,0.721,0.352,0.611,0.575,��,5.6,��
2021/11/10,20:00,0.571,0.851,0.544,1.039,0.718,0.353,0.612,0.573,��,4.9,��
2021/11/10,20:10,0.571,0.853,0.543,1.041,0.719,0.353,0.611,0.573,��,3.1,��
2021/11/10,20:20,0.571,0.851,0.543,1.041,0.718,0.352,0.613,0.571,��,1.7,��
2021/11/10,20:30,0.572,0.853,0.543,1.040,0.720,0.352,0.610,0.570,���쐼,1.4,��
2021/11/10,20:40,0.570,0.850,0.545,1.043,0.718,0.352,0.611,0.573,���쐼,2.6,��
2021/11/10,20:50,0.571,0.851,0.542,1.040,0.721,0.352,0.611,0.573,�쐼,4.0,��
2021/11/10,21:00,0.571,0.852,0.544,1.041,0.719,0.352,0.610,0.572,�쐼,4.2,��
2021/11/10,21:10,0.570,0.849,0.545,1.039,0.719,0.352,0.610,0.573,�쐼,3.4,��
2021/11/10,21:20,0.570,0.850,0.544,1.042,0.720,0.352,0.612,0.574,���쐼,2.5,��
2021/11/10,21:30,0.569,0.851,0.545,1.040,0.722,0.352,0.611,0.574,���쐼,3.1,��
2021/11/10,21:40,0.570,0.852,0.544,1.040,0.720,0.354,0.613,0.573,�쐼,3.0,��
2021/11/10,21:50,0.569,0.851,0.545,1.040,0.719,0.353,0.610,0.572,��쐼,2.6,��
2021/11/10,22:00,0.570,0.852,0.546,1.042,0.718,0.353,0.611,0.574,�쐼,1.2,��
2021/11/10,22:10,0.573,0.852,0.542,1.039,0.720,0.352,0.611,0.574,��,3.0,��
2021/11/10,22:20,0.570,0.851,0.543,1.042,0.721,0.353,0.610,0.574,���쐼,3.4,��
2021/11/10,22:30,0.571,0.849,0.544,1.040,0.722,0.353,0.609,0.572,���쐼,2.8,��
2021/11/10,22:40,0.570,0.849,0.545,1.041,0.721,0.352,0.610,0.574,���쐼,3.7,��
2021/11/10,22:50,0.571,0.851,0.542,1.039,0.719,0.352,0.611,0.574,���쐼,3.3,��
2021/11/10,23:00,0.570,0.849,0.544,1.042,0.721,0.352,0.611,0.573,���쐼,3.4,��
2021/11/10,23:10,0.570,0.852,0.544,1.041,0.721,0.352,0.612,0.573,��,4.1,��
2021/11/10,23:20,0.570,0.850,0.543,1.039,0.719,0.352,0.610,0.573,���쐼,2.9,��
2021/11/10,23:30,0.571,0.851,0.544,1.041,0.721,0.354,0.610,0.574,���쐼,4.0,��
2021/11/10,23:40,0.569,0.850,0.542,1.043,0.722,0.353,0.610,0.572,���쐼,4.2,��
2021/11/10,23:50,0.571,0.850,0.543,1.041,0.723,0.353,0.610,0.574,�쐼,2.6,��
